owner,sensor,date,latitude,longitude,sea_surface_height_above_sea_level,qcFlag 
TCOON,ioos:station:TCOON:057:1,2014-06-01T00:00:00Z,28.4460,-96.3961,3.738,1111122 
TCOON,ioos:station:TCOON:057:1,2014-06-01T01:00:00Z,28.4460,-96.3961,3.704,1111122 
TCOON,ioos:station:TCOON:057:1,2014-06-01T01:54:00Z,28.4460,-96.3961,3.681,1111122 
TCOON,ioos:station:TCOON:057:1,2014-06-01T03:00:00Z,28.4460,-96.3961,3.649,1111122 
TCOON,ioos:station:TCOON:057:1,2014-06-01T04:00:00Z,28.4460,-96.3961,3.62,1111122 
TCOON,ioos:station:TCOON:057:1,2014-06-01T05:00:00Z,28.4460,-96.3961,3.588,1111122 
TCOON,ioos:station:TCOON:057:1,2014-06-01T06:30:00Z,28.4460,-96.3961,3.561,1111122 
TCOON,ioos:station:TCOON:057:1,2014-06-01T07:00:00Z,28.4460,-96.3961,3.557,1111122 
TCOON,ioos:station:TCOON:057:1,2014-06-01T08:00:00Z,28.4460,-96.3961,3.547,1111122 
TCOON,ioos:station:TCOON:057:1,2014-06-01T09:00:00Z,28.4460,-96.3961,3.58,1111122 
TCOON,ioos:station:TCOON:057:1,2014-06-01T10:00:00Z,28.4460,-96.3961,3.607,1111122 
TCOON,ioos:station:TCOON:057:1,2014-06-01T11:00:00Z,28.4460,-96.3961,3.632,1111122 
TCOON,ioos:station:TCOON:057:1,2014-06-01T12:00:00Z,28.4460,-96.3961,3.672,1111122 
TCOON,ioos:station:TCOON:057:1,2014-06-01T13:00:00Z,28.4460,-96.3961,3.716,1111122 
TCOON,ioos:station:TCOON:057:1,2014-06-01T14:00:00Z,28.4460,-96.3961,3.736,1111122 
TCOON,ioos:station:TCOON:057:1,2014-06-01T15:00:00Z,28.4460,-96.3961,3.747,1111122 
TCOON,ioos:station:TCOON:057:1,2014-06-01T16:00:00Z,28.4460,-96.3961,3.78,1111122 
TCOON,ioos:station:TCOON:057:1,2014-06-01T17:00:00Z,28.4460,-96.3961,3.802,1111122 
TCOON,ioos:station:TCOON:057:1,2014-06-01T18:00:00Z,28.4460,-96.3961,3.818,1111122 
TCOON,ioos:station:TCOON:057:1,2014-06-01T19:00:00Z,28.4460,-96.3961,3.834,1111122 
TCOON,ioos:station:TCOON:057:1,2014-06-01T20:00:00Z,28.4460,-96.3961,3.834,1111122 
TCOON,ioos:station:TCOON:057:1,2014-06-01T21:00:00Z,28.4460,-96.3961,3.84,1111122 
TCOON,ioos:station:TCOON:057:1,2014-06-01T22:00:00Z,28.4460,-96.3961,3.832,1111122 
TCOON,ioos:station:TCOON:057:1,2014-06-01T23:00:00Z,28.4460,-96.3961,3.836,1111122 
TCOON,ioos:station:TCOON:057:1,2014-06-01T23:54:00Z,28.4460,-96.3961,3.813,1111122 
TCOON,ioos:station:TCOON:057:1,2014-06-02T01:00:00Z,28.4460,-96.3961,3.79,1111122 
TCOON,ioos:station:TCOON:057:1,2014-06-02T02:00:00Z,28.4460,-96.3961,3.75,1111122 
TCOON,ioos:station:TCOON:057:1,2014-06-02T03:00:00Z,28.4460,-96.3961,3.732,1111122 
TCOON,ioos:station:TCOON:057:1,2014-06-02T04:00:00Z,28.4460,-96.3961,3.711,1111122 
TCOON,ioos:station:TCOON:057:1,2014-06-02T05:00:00Z,28.4460,-96.3961,3.677,1111122 
TCOON,ioos:station:TCOON:057:1,2014-06-02T06:36:00Z,28.4460,-96.3961,3.638,1111122 
TCOON,ioos:station:TCOON:057:1,2014-06-02T07:00:00Z,28.4460,-96.3961,3.64,1111122 
TCOON,ioos:station:TCOON:057:1,2014-06-02T08:00:00Z,28.4460,-96.3961,3.642,1111122 
TCOON,ioos:station:TCOON:057:1,2014-06-02T09:00:00Z,28.4460,-96.3961,3.661,1111122 
TCOON,ioos:station:TCOON:057:1,2014-06-02T10:00:00Z,28.4460,-96.3961,3.669,1111122 
TCOON,ioos:station:TCOON:057:1,2014-06-02T11:00:00Z,28.4460,-96.3961,3.702,1111122 
TCOON,ioos:station:TCOON:057:1,2014-06-02T12:00:00Z,28.4460,-96.3961,3.735,1111122 
TCOON,ioos:station:TCOON:057:1,2014-06-02T12:54:00Z,28.4460,-96.3961,3.756,1111122 
TCOON,ioos:station:TCOON:057:1,2014-06-02T14:00:00Z,28.4460,-96.3961,3.786,1111122 
TCOON,ioos:station:TCOON:057:1,2014-06-02T15:00:00Z,28.4460,-96.3961,3.821,1111122 
TCOON,ioos:station:TCOON:057:1,2014-06-02T16:00:00Z,28.4460,-96.3961,3.84,1111122 
TCOON,ioos:station:TCOON:057:1,2014-06-02T17:00:00Z,28.4460,-96.3961,3.87,1111122 
TCOON,ioos:station:TCOON:057:1,2014-06-02T18:00:00Z,28.4460,-96.3961,3.862,1111122 
TCOON,ioos:station:TCOON:057:1,2014-06-02T19:00:00Z,28.4460,-96.3961,3.871,1111122 
TCOON,ioos:station:TCOON:057:1,2014-06-02T20:00:00Z,28.4460,-96.3961,3.878,1111122 
TCOON,ioos:station:TCOON:057:1,2014-06-02T21:00:00Z,28.4460,-96.3961,3.869,1111122 
TCOON,ioos:station:TCOON:057:1,2014-06-02T22:00:00Z,28.4460,-96.3961,3.859,1111122 
TCOON,ioos:station:TCOON:057:1,2014-06-02T23:00:00Z,28.4460,-96.3961,3.865,1111122 
TCOON,ioos:station:TCOON:057:1,2014-06-02T23:54:00Z,28.4460,-96.3961,3.854,1111122 
TCOON,ioos:station:TCOON:057:1,2014-06-03T01:00:00Z,28.4460,-96.3961,3.835,1111122 
TCOON,ioos:station:TCOON:057:1,2014-06-03T02:00:00Z,28.4460,-96.3961,3.81,1111122 
TCOON,ioos:station:TCOON:057:1,2014-06-03T03:00:00Z,28.4460,-96.3961,3.789,1111122 
TCOON,ioos:station:TCOON:057:1,2014-06-03T04:00:00Z,28.4460,-96.3961,3.763,1111122 
TCOON,ioos:station:TCOON:057:1,2014-06-03T05:00:00Z,28.4460,-96.3961,3.733,1111122 
TCOON,ioos:station:TCOON:057:1,2014-06-03T06:24:00Z,28.4460,-96.3961,3.708,1111122 
TCOON,ioos:station:TCOON:057:1,2014-06-03T07:00:00Z,28.4460,-96.3961,3.698,1111122 
TCOON,ioos:station:TCOON:057:1,2014-06-03T08:00:00Z,28.4460,-96.3961,3.693,1111122 
TCOON,ioos:station:TCOON:057:1,2014-06-03T09:00:00Z,28.4460,-96.3961,3.699,1111122 
TCOON,ioos:station:TCOON:057:1,2014-06-03T10:00:00Z,28.4460,-96.3961,3.703,1111122 
TCOON,ioos:station:TCOON:057:1,2014-06-03T11:00:00Z,28.4460,-96.3961,3.733,1111122 
TCOON,ioos:station:TCOON:057:1,2014-06-03T12:00:00Z,28.4460,-96.3961,3.759,1111122 
TCOON,ioos:station:TCOON:057:1,2014-06-03T13:00:00Z,28.4460,-96.3961,3.786,1111122 
TCOON,ioos:station:TCOON:057:1,2014-06-03T14:00:00Z,28.4460,-96.3961,3.81,1111122 
TCOON,ioos:station:TCOON:057:1,2014-06-03T15:00:00Z,28.4460,-96.3961,3.828,1111122 
TCOON,ioos:station:TCOON:057:1,2014-06-03T16:00:00Z,28.4460,-96.3961,3.844,1111122 
TCOON,ioos:station:TCOON:057:1,2014-06-03T17:00:00Z,28.4460,-96.3961,3.862,1111122 
TCOON,ioos:station:TCOON:057:1,2014-06-03T18:00:00Z,28.4460,-96.3961,3.873,1111122 
TCOON,ioos:station:TCOON:057:1,2014-06-03T19:00:00Z,28.4460,-96.3961,3.882,1111122 
TCOON,ioos:station:TCOON:057:1,2014-06-03T20:00:00Z,28.4460,-96.3961,3.883,1111122 
TCOON,ioos:station:TCOON:057:1,2014-06-03T21:00:00Z,28.4460,-96.3961,3.872,1111122 
TCOON,ioos:station:TCOON:057:1,2014-06-03T22:00:00Z,28.4460,-96.3961,3.867,1111122 
TCOON,ioos:station:TCOON:057:1,2014-06-03T23:00:00Z,28.4460,-96.3961,3.868,1111122 
TCOON,ioos:station:TCOON:057:1,2014-06-04T00:00:00Z,28.4460,-96.3961,3.858,1111122 
TCOON,ioos:station:TCOON:057:1,2014-06-04T01:00:00Z,28.4460,-96.3961,3.839,1111122 
TCOON,ioos:station:TCOON:057:1,2014-06-04T01:54:00Z,28.4460,-96.3961,3.826,1111122 
TCOON,ioos:station:TCOON:057:1,2014-06-04T03:00:00Z,28.4460,-96.3961,3.791,1111122 
TCOON,ioos:station:TCOON:057:1,2014-06-04T04:00:00Z,28.4460,-96.3961,3.783,1111122 
TCOON,ioos:station:TCOON:057:1,2014-06-04T05:00:00Z,28.4460,-96.3961,3.76,1111122 
TCOON,ioos:station:TCOON:057:1,2014-06-04T06:00:00Z,28.4460,-96.3961,3.737,1111122 
TCOON,ioos:station:TCOON:057:1,2014-06-04T07:00:00Z,28.4460,-96.3961,3.721,1111122 
TCOON,ioos:station:TCOON:057:1,2014-06-04T08:00:00Z,28.4460,-96.3961,3.703,1111122 
TCOON,ioos:station:TCOON:057:1,2014-06-04T09:00:00Z,28.4460,-96.3961,3.697,1111122 
TCOON,ioos:station:TCOON:057:1,2014-06-04T10:00:00Z,28.4460,-96.3961,3.699,1111122 
TCOON,ioos:station:TCOON:057:1,2014-06-04T11:00:00Z,28.4460,-96.3961,3.72,1111122 
TCOON,ioos:station:TCOON:057:1,2014-06-04T12:00:00Z,28.4460,-96.3961,3.739,1111122 
TCOON,ioos:station:TCOON:057:1,2014-06-04T13:00:00Z,28.4460,-96.3961,3.769,1111122 
TCOON,ioos:station:TCOON:057:1,2014-06-04T14:00:00Z,28.4460,-96.3961,3.773,1111122 
TCOON,ioos:station:TCOON:057:1,2014-06-04T15:00:00Z,28.4460,-96.3961,3.799,1111122 
TCOON,ioos:station:TCOON:057:1,2014-06-04T16:00:00Z,28.4460,-96.3961,3.829,1111122 
TCOON,ioos:station:TCOON:057:1,2014-06-04T17:00:00Z,28.4460,-96.3961,3.832,1111122 
TCOON,ioos:station:TCOON:057:1,2014-06-04T18:00:00Z,28.4460,-96.3961,3.848,1111122 
TCOON,ioos:station:TCOON:057:1,2014-06-04T19:00:00Z,28.4460,-96.3961,3.852,1111122 
TCOON,ioos:station:TCOON:057:1,2014-06-04T20:00:00Z,28.4460,-96.3961,3.829,1111122 
TCOON,ioos:station:TCOON:057:1,2014-06-04T21:00:00Z,28.4460,-96.3961,3.833,1111122 
TCOON,ioos:station:TCOON:057:1,2014-06-04T22:00:00Z,28.4460,-96.3961,3.824,1111122 
TCOON,ioos:station:TCOON:057:1,2014-06-04T23:00:00Z,28.4460,-96.3961,3.818,1111122 
TCOON,ioos:station:TCOON:057:1,2014-06-05T00:00:00Z,28.4460,-96.3961,3.806,1111122 
TCOON,ioos:station:TCOON:057:1,2014-06-05T00:54:00Z,28.4460,-96.3961,3.789,1111122 
TCOON,ioos:station:TCOON:057:1,2014-06-05T01:54:00Z,28.4460,-96.3961,3.772,1111122 
TCOON,ioos:station:TCOON:057:1,2014-06-05T03:00:00Z,28.4460,-96.3961,3.752,1111122 
TCOON,ioos:station:TCOON:057:1,2014-06-05T04:00:00Z,28.4460,-96.3961,3.749,1111122 
TCOON,ioos:station:TCOON:057:1,2014-06-05T05:00:00Z,28.4460,-96.3961,3.729,1111122 
TCOON,ioos:station:TCOON:057:1,2014-06-05T06:18:00Z,28.4460,-96.3961,3.719,1111122 
TCOON,ioos:station:TCOON:057:1,2014-06-05T06:54:00Z,28.4460,-96.3961,3.698,1111122 
TCOON,ioos:station:TCOON:057:1,2014-06-05T08:00:00Z,28.4460,-96.3961,3.692,1111122 
TCOON,ioos:station:TCOON:057:1,2014-06-05T09:00:00Z,28.4460,-96.3961,3.693,1111122 
TCOON,ioos:station:TCOON:057:1,2014-06-05T10:00:00Z,28.4460,-96.3961,3.707,1111122 
TCOON,ioos:station:TCOON:057:1,2014-06-05T11:00:00Z,28.4460,-96.3961,3.722,1111122 
TCOON,ioos:station:TCOON:057:1,2014-06-05T12:00:00Z,28.4460,-96.3961,3.729,1111122 
TCOON,ioos:station:TCOON:057:1,2014-06-05T13:00:00Z,28.4460,-96.3961,3.749,1111122 
TCOON,ioos:station:TCOON:057:1,2014-06-05T14:00:00Z,28.4460,-96.3961,3.769,1111122 
TCOON,ioos:station:TCOON:057:1,2014-06-05T15:00:00Z,28.4460,-96.3961,3.785,1111122 
TCOON,ioos:station:TCOON:057:1,2014-06-05T16:00:00Z,28.4460,-96.3961,3.792,1111122 
TCOON,ioos:station:TCOON:057:1,2014-06-05T17:00:00Z,28.4460,-96.3961,3.816,1111122 
TCOON,ioos:station:TCOON:057:1,2014-06-05T18:00:00Z,28.4460,-96.3961,3.816,1111122 
TCOON,ioos:station:TCOON:057:1,2014-06-05T19:00:00Z,28.4460,-96.3961,3.831,1111122 
TCOON,ioos:station:TCOON:057:1,2014-06-05T20:00:00Z,28.4460,-96.3961,3.822,1111122 
TCOON,ioos:station:TCOON:057:1,2014-06-05T21:00:00Z,28.4460,-96.3961,3.797,1111122 
TCOON,ioos:station:TCOON:057:1,2014-06-05T22:00:00Z,28.4460,-96.3961,3.78,1111122 
TCOON,ioos:station:TCOON:057:1,2014-06-05T23:00:00Z,28.4460,-96.3961,3.779,1111122 
TCOON,ioos:station:TCOON:057:1,2014-06-06T00:00:00Z,28.4460,-96.3961,3.778,1111122 
TCOON,ioos:station:TCOON:057:1,2014-06-06T01:00:00Z,28.4460,-96.3961,3.762,1111122 
TCOON,ioos:station:TCOON:057:1,2014-06-06T02:00:00Z,28.4460,-96.3961,3.744,1111122 
TCOON,ioos:station:TCOON:057:1,2014-06-06T03:00:00Z,28.4460,-96.3961,3.732,1111122 
TCOON,ioos:station:TCOON:057:1,2014-06-06T04:00:00Z,28.4460,-96.3961,3.726,1111122 
TCOON,ioos:station:TCOON:057:1,2014-06-06T05:00:00Z,28.4460,-96.3961,3.719,1111122 
TCOON,ioos:station:TCOON:057:1,2014-06-06T06:24:00Z,28.4460,-96.3961,3.689,1111122 
TCOON,ioos:station:TCOON:057:1,2014-06-06T06:54:00Z,28.4460,-96.3961,3.706,1111122 
TCOON,ioos:station:TCOON:057:1,2014-06-06T08:00:00Z,28.4460,-96.3961,3.703,1111122 
TCOON,ioos:station:TCOON:057:1,2014-06-06T09:00:00Z,28.4460,-96.3961,3.709,1111122 
TCOON,ioos:station:TCOON:057:1,2014-06-06T10:00:00Z,28.4460,-96.3961,3.727,1111122 
TCOON,ioos:station:TCOON:057:1,2014-06-06T11:00:00Z,28.4460,-96.3961,3.731,1111122 
TCOON,ioos:station:TCOON:057:1,2014-06-06T12:00:00Z,28.4460,-96.3961,3.746,1111122 
TCOON,ioos:station:TCOON:057:1,2014-06-06T13:00:00Z,28.4460,-96.3961,3.751,1111122 
TCOON,ioos:station:TCOON:057:1,2014-06-06T14:00:00Z,28.4460,-96.3961,3.759,1111122 
TCOON,ioos:station:TCOON:057:1,2014-06-06T15:00:00Z,28.4460,-96.3961,3.775,1111122 
TCOON,ioos:station:TCOON:057:1,2014-06-06T16:00:00Z,28.4460,-96.3961,3.762,1111122 
TCOON,ioos:station:TCOON:057:1,2014-06-06T17:00:00Z,28.4460,-96.3961,3.77,1111122 
TCOON,ioos:station:TCOON:057:1,2014-06-06T18:00:00Z,28.4460,-96.3961,3.783,1111122 
TCOON,ioos:station:TCOON:057:1,2014-06-06T19:00:00Z,28.4460,-96.3961,3.773,1111122 
TCOON,ioos:station:TCOON:057:1,2014-06-06T20:00:00Z,28.4460,-96.3961,3.754,1111122 
TCOON,ioos:station:TCOON:057:1,2014-06-06T21:00:00Z,28.4460,-96.3961,3.734,1111122 
TCOON,ioos:station:TCOON:057:1,2014-06-06T22:00:00Z,28.4460,-96.3961,3.717,1111122 
TCOON,ioos:station:TCOON:057:1,2014-06-06T23:00:00Z,28.4460,-96.3961,3.709,1111122 
TCOON,ioos:station:TCOON:057:1,2014-06-07T00:00:00Z,28.4460,-96.3961,3.682,1111122 
TCOON,ioos:station:TCOON:057:1,2014-06-07T01:00:00Z,28.4460,-96.3961,3.659,1111122 
TCOON,ioos:station:TCOON:057:1,2014-06-07T02:00:00Z,28.4460,-96.3961,3.651,1111122 
TCOON,ioos:station:TCOON:057:1,2014-06-07T03:00:00Z,28.4460,-96.3961,3.635,1111122 
TCOON,ioos:station:TCOON:057:1,2014-06-07T04:00:00Z,28.4460,-96.3961,3.645,1111122 
TCOON,ioos:station:TCOON:057:1,2014-06-07T05:00:00Z,28.4460,-96.3961,3.639,1111122 
TCOON,ioos:station:TCOON:057:1,2014-06-07T06:00:00Z,28.4460,-96.3961,3.649,1111122 
TCOON,ioos:station:TCOON:057:1,2014-06-07T07:00:00Z,28.4460,-96.3961,3.66,1111122 
TCOON,ioos:station:TCOON:057:1,2014-06-07T08:00:00Z,28.4460,-96.3961,3.679,1111122 
TCOON,ioos:station:TCOON:057:1,2014-06-07T09:00:00Z,28.4460,-96.3961,3.699,1111122 
TCOON,ioos:station:TCOON:057:1,2014-06-07T10:00:00Z,28.4460,-96.3961,3.703,1111122 
TCOON,ioos:station:TCOON:057:1,2014-06-07T11:00:00Z,28.4460,-96.3961,3.717,1111122 
TCOON,ioos:station:TCOON:057:1,2014-06-07T11:54:00Z,28.4460,-96.3961,3.721,1111122 
TCOON,ioos:station:TCOON:057:1,2014-06-07T13:00:00Z,28.4460,-96.3961,3.749,1111122 
TCOON,ioos:station:TCOON:057:1,2014-06-07T14:00:00Z,28.4460,-96.3961,3.745,1111122 
TCOON,ioos:station:TCOON:057:1,2014-06-07T15:06:00Z,28.4460,-96.3961,3.755,1111122 
TCOON,ioos:station:TCOON:057:1,2014-06-07T16:00:00Z,28.4460,-96.3961,3.749,1111122 
TCOON,ioos:station:TCOON:057:1,2014-06-07T17:00:00Z,28.4460,-96.3961,3.743,1111122 
TCOON,ioos:station:TCOON:057:1,2014-06-07T18:00:00Z,28.4460,-96.3961,3.736,1111122 
TCOON,ioos:station:TCOON:057:1,2014-06-07T19:00:00Z,28.4460,-96.3961,3.725,1111122 
TCOON,ioos:station:TCOON:057:1,2014-06-07T20:00:00Z,28.4460,-96.3961,3.713,1111122 
TCOON,ioos:station:TCOON:057:1,2014-06-07T21:00:00Z,28.4460,-96.3961,3.701,1111122 
TCOON,ioos:station:TCOON:057:1,2014-06-07T21:54:00Z,28.4460,-96.3961,3.676,1111122 
TCOON,ioos:station:TCOON:057:1,2014-06-07T23:00:00Z,28.4460,-96.3961,3.652,1111122 
TCOON,ioos:station:TCOON:057:1,2014-06-08T00:00:00Z,28.4460,-96.3961,3.637,1111122 
TCOON,ioos:station:TCOON:057:1,2014-06-08T01:00:00Z,28.4460,-96.3961,3.609,1111122 
TCOON,ioos:station:TCOON:057:1,2014-06-08T01:54:00Z,28.4460,-96.3961,3.601,1111122 
TCOON,ioos:station:TCOON:057:1,2014-06-08T03:00:00Z,28.4460,-96.3961,3.596,1111122 
TCOON,ioos:station:TCOON:057:1,2014-06-08T04:12:00Z,28.4460,-96.3961,3.599,1111122 
TCOON,ioos:station:TCOON:057:1,2014-06-08T05:00:00Z,28.4460,-96.3961,3.599,1111122 
TCOON,ioos:station:TCOON:057:1,2014-06-08T06:24:00Z,28.4460,-96.3961,3.623,1111122 
TCOON,ioos:station:TCOON:057:1,2014-06-08T07:00:00Z,28.4460,-96.3961,3.647,1111122 
TCOON,ioos:station:TCOON:057:1,2014-06-08T08:00:00Z,28.4460,-96.3961,3.659,1111122 
TCOON,ioos:station:TCOON:057:1,2014-06-08T09:00:00Z,28.4460,-96.3961,3.683,1111122 
TCOON,ioos:station:TCOON:057:1,2014-06-08T10:00:00Z,28.4460,-96.3961,3.703,1111122 
TCOON,ioos:station:TCOON:057:1,2014-06-08T11:00:00Z,28.4460,-96.3961,3.738,1111122 
TCOON,ioos:station:TCOON:057:1,2014-06-08T12:00:00Z,28.4460,-96.3961,3.743,1111122 
TCOON,ioos:station:TCOON:057:1,2014-06-08T13:00:00Z,28.4460,-96.3961,3.757,1111122 
TCOON,ioos:station:TCOON:057:1,2014-06-08T14:00:00Z,28.4460,-96.3961,3.761,1111122 
TCOON,ioos:station:TCOON:057:1,2014-06-08T15:00:00Z,28.4460,-96.3961,3.733,1111122 
TCOON,ioos:station:TCOON:057:1,2014-06-08T16:00:00Z,28.4460,-96.3961,3.785,1111122 
TCOON,ioos:station:TCOON:057:1,2014-06-08T17:00:00Z,28.4460,-96.3961,3.776,1111122 
TCOON,ioos:station:TCOON:057:1,2014-06-08T18:00:00Z,28.4460,-96.3961,3.774,1111122 
TCOON,ioos:station:TCOON:057:1,2014-06-08T19:00:00Z,28.4460,-96.3961,3.733,1111122 
TCOON,ioos:station:TCOON:057:1,2014-06-08T20:00:00Z,28.4460,-96.3961,3.708,1111122 
TCOON,ioos:station:TCOON:057:1,2014-06-08T21:00:00Z,28.4460,-96.3961,3.695,1111122 
TCOON,ioos:station:TCOON:057:1,2014-06-08T22:00:00Z,28.4460,-96.3961,3.669,1111122 
TCOON,ioos:station:TCOON:057:1,2014-06-08T23:00:00Z,28.4460,-96.3961,3.64,1111122 
TCOON,ioos:station:TCOON:057:1,2014-06-09T00:00:00Z,28.4460,-96.3961,3.604,1111122 
TCOON,ioos:station:TCOON:057:1,2014-06-09T01:00:00Z,28.4460,-96.3961,3.566,1111122 
TCOON,ioos:station:TCOON:057:1,2014-06-09T02:00:00Z,28.4460,-96.3961,3.549,1111122 
TCOON,ioos:station:TCOON:057:1,2014-06-09T03:00:00Z,28.4460,-96.3961,3.55,1111122 
TCOON,ioos:station:TCOON:057:1,2014-06-09T04:00:00Z,28.4460,-96.3961,3.559,1111122 
TCOON,ioos:station:TCOON:057:1,2014-06-09T05:00:00Z,28.4460,-96.3961,3.597,1111122 
TCOON,ioos:station:TCOON:057:1,2014-06-09T06:30:00Z,28.4460,-96.3961,3.637,1111122 
TCOON,ioos:station:TCOON:057:1,2014-06-09T07:00:00Z,28.4460,-96.3961,3.644,1111122 
TCOON,ioos:station:TCOON:057:1,2014-06-09T08:00:00Z,28.4460,-96.3961,3.68,1111122 
TCOON,ioos:station:TCOON:057:1,2014-06-09T09:00:00Z,28.4460,-96.3961,3.687,1111122 
TCOON,ioos:station:TCOON:057:1,2014-06-09T10:00:00Z,28.4460,-96.3961,3.699,1111122 
TCOON,ioos:station:TCOON:057:1,2014-06-09T11:00:00Z,28.4460,-96.3961,3.736,1111122 
TCOON,ioos:station:TCOON:057:1,2014-06-09T12:00:00Z,28.4460,-96.3961,3.732,1111122 
TCOON,ioos:station:TCOON:057:1,2014-06-09T12:54:00Z,28.4460,-96.3961,3.745,1111122 
TCOON,ioos:station:TCOON:057:1,2014-06-09T14:00:00Z,28.4460,-96.3961,3.744,1111122 
TCOON,ioos:station:TCOON:057:1,2014-06-09T15:00:00Z,28.4460,-96.3961,3.753,1111122 
TCOON,ioos:station:TCOON:057:1,2014-06-09T16:00:00Z,28.4460,-96.3961,3.765,1111122 
TCOON,ioos:station:TCOON:057:1,2014-06-09T17:00:00Z,28.4460,-96.3961,3.767,1111122 
TCOON,ioos:station:TCOON:057:1,2014-06-09T18:00:00Z,28.4460,-96.3961,3.75,1111122 
TCOON,ioos:station:TCOON:057:1,2014-06-09T19:00:00Z,28.4460,-96.3961,3.752,1111122 
TCOON,ioos:station:TCOON:057:1,2014-06-09T19:54:00Z,28.4460,-96.3961,3.747,1111122 
TCOON,ioos:station:TCOON:057:1,2014-06-09T21:00:00Z,28.4460,-96.3961,3.688,1111122 
TCOON,ioos:station:TCOON:057:1,2014-06-09T22:00:00Z,28.4460,-96.3961,3.665,1111122 
TCOON,ioos:station:TCOON:057:1,2014-06-09T23:00:00Z,28.4460,-96.3961,3.684,1111122 
TCOON,ioos:station:TCOON:057:1,2014-06-10T00:00:00Z,28.4460,-96.3961,3.607,1111122 
TCOON,ioos:station:TCOON:057:1,2014-06-10T01:00:00Z,28.4460,-96.3961,3.595,1111122 
TCOON,ioos:station:TCOON:057:1,2014-06-10T02:00:00Z,28.4460,-96.3961,3.569,1111122 
TCOON,ioos:station:TCOON:057:1,2014-06-10T03:00:00Z,28.4460,-96.3961,3.554,1111122 
TCOON,ioos:station:TCOON:057:1,2014-06-10T04:00:00Z,28.4460,-96.3961,3.558,1111122 
TCOON,ioos:station:TCOON:057:1,2014-06-10T05:00:00Z,28.4460,-96.3961,3.561,1111122 
TCOON,ioos:station:TCOON:057:1,2014-06-10T06:24:00Z,28.4460,-96.3961,3.629,1111122 
TCOON,ioos:station:TCOON:057:1,2014-06-10T07:00:00Z,28.4460,-96.3961,3.639,1111122 
TCOON,ioos:station:TCOON:057:1,2014-06-10T08:00:00Z,28.4460,-96.3961,3.671,1111122 
TCOON,ioos:station:TCOON:057:1,2014-06-10T09:00:00Z,28.4460,-96.3961,3.694,1111122 
TCOON,ioos:station:TCOON:057:1,2014-06-10T10:00:00Z,28.4460,-96.3961,3.714,1111122 
TCOON,ioos:station:TCOON:057:1,2014-06-10T11:00:00Z,28.4460,-96.3961,3.75,1111122 
TCOON,ioos:station:TCOON:057:1,2014-06-10T12:00:00Z,28.4460,-96.3961,3.761,1111122 
TCOON,ioos:station:TCOON:057:1,2014-06-10T13:00:00Z,28.4460,-96.3961,3.744,1111122 
TCOON,ioos:station:TCOON:057:1,2014-06-10T14:00:00Z,28.4460,-96.3961,3.762,1111122 
TCOON,ioos:station:TCOON:057:1,2014-06-10T15:00:00Z,28.4460,-96.3961,3.791,1111122 
TCOON,ioos:station:TCOON:057:1,2014-06-10T16:00:00Z,28.4460,-96.3961,3.75,1111122 
TCOON,ioos:station:TCOON:057:1,2014-06-10T17:00:00Z,28.4460,-96.3961,3.733,1111122 
TCOON,ioos:station:TCOON:057:1,2014-06-10T18:00:00Z,28.4460,-96.3961,3.696,1111122 
TCOON,ioos:station:TCOON:057:1,2014-06-10T19:00:00Z,28.4460,-96.3961,3.701,1111122 
TCOON,ioos:station:TCOON:057:1,2014-06-10T20:00:00Z,28.4460,-96.3961,3.669,1111122 
TCOON,ioos:station:TCOON:057:1,2014-06-10T21:00:00Z,28.4460,-96.3961,3.634,1111122 
TCOON,ioos:station:TCOON:057:1,2014-06-10T22:00:00Z,28.4460,-96.3961,3.588,1111122 
TCOON,ioos:station:TCOON:057:1,2014-06-10T23:00:00Z,28.4460,-96.3961,3.561,1111122 
TCOON,ioos:station:TCOON:057:1,2014-06-11T00:00:00Z,28.4460,-96.3961,3.517,1111122 
TCOON,ioos:station:TCOON:057:1,2014-06-11T01:00:00Z,28.4460,-96.3961,3.486,1111122 
TCOON,ioos:station:TCOON:057:1,2014-06-11T02:00:00Z,28.4460,-96.3961,3.445,1111122 
TCOON,ioos:station:TCOON:057:1,2014-06-11T03:00:00Z,28.4460,-96.3961,3.421,1111122 
TCOON,ioos:station:TCOON:057:1,2014-06-11T04:00:00Z,28.4460,-96.3961,3.409,1111122 
TCOON,ioos:station:TCOON:057:1,2014-06-11T04:54:00Z,28.4460,-96.3961,3.41,1111122 
TCOON,ioos:station:TCOON:057:1,2014-06-11T06:30:00Z,28.4460,-96.3961,3.464,1111122 
TCOON,ioos:station:TCOON:057:1,2014-06-11T07:00:00Z,28.4460,-96.3961,3.473,1111122 
TCOON,ioos:station:TCOON:057:1,2014-06-11T08:00:00Z,28.4460,-96.3961,3.505,1111122 
TCOON,ioos:station:TCOON:057:1,2014-06-11T09:00:00Z,28.4460,-96.3961,3.533,1111122 
TCOON,ioos:station:TCOON:057:1,2014-06-11T10:00:00Z,28.4460,-96.3961,3.556,1111122 
TCOON,ioos:station:TCOON:057:1,2014-06-11T11:00:00Z,28.4460,-96.3961,3.597,1111122 
TCOON,ioos:station:TCOON:057:1,2014-06-11T12:00:00Z,28.4460,-96.3961,3.614,1111122 
TCOON,ioos:station:TCOON:057:1,2014-06-11T13:00:00Z,28.4460,-96.3961,3.639,1111122 
TCOON,ioos:station:TCOON:057:1,2014-06-11T14:00:00Z,28.4460,-96.3961,3.644,1111122 
TCOON,ioos:station:TCOON:057:1,2014-06-11T15:00:00Z,28.4460,-96.3961,3.646,1111122 
TCOON,ioos:station:TCOON:057:1,2014-06-11T16:00:00Z,28.4460,-96.3961,3.656,1111122 
TCOON,ioos:station:TCOON:057:1,2014-06-11T17:00:00Z,28.4460,-96.3961,3.655,1111122 
TCOON,ioos:station:TCOON:057:1,2014-06-11T18:00:00Z,28.4460,-96.3961,3.646,1111122 
TCOON,ioos:station:TCOON:057:1,2014-06-11T19:00:00Z,28.4460,-96.3961,3.647,1111122 
TCOON,ioos:station:TCOON:057:1,2014-06-11T19:54:00Z,28.4460,-96.3961,3.62,1111122 
TCOON,ioos:station:TCOON:057:1,2014-06-11T20:54:00Z,28.4460,-96.3961,3.595,1111122 
TCOON,ioos:station:TCOON:057:1,2014-06-11T22:00:00Z,28.4460,-96.3961,3.57,1111122 
TCOON,ioos:station:TCOON:057:1,2014-06-11T23:00:00Z,28.4460,-96.3961,3.522,1111122 
TCOON,ioos:station:TCOON:057:1,2014-06-12T00:00:00Z,28.4460,-96.3961,3.49,1111122 
TCOON,ioos:station:TCOON:057:1,2014-06-12T01:00:00Z,28.4460,-96.3961,3.447,1111122 
TCOON,ioos:station:TCOON:057:1,2014-06-12T02:00:00Z,28.4460,-96.3961,3.41,1111122 
TCOON,ioos:station:TCOON:057:1,2014-06-12T03:00:00Z,28.4460,-96.3961,3.394,1111122 
TCOON,ioos:station:TCOON:057:1,2014-06-12T04:00:00Z,28.4460,-96.3961,3.392,1111122 
TCOON,ioos:station:TCOON:057:1,2014-06-12T05:00:00Z,28.4460,-96.3961,3.388,1111122 
TCOON,ioos:station:TCOON:057:1,2014-06-12T06:30:00Z,28.4460,-96.3961,3.416,1111122 
TCOON,ioos:station:TCOON:057:1,2014-06-12T07:00:00Z,28.4460,-96.3961,3.426,1111122 
TCOON,ioos:station:TCOON:057:1,2014-06-12T08:00:00Z,28.4460,-96.3961,3.483,1111122 
TCOON,ioos:station:TCOON:057:1,2014-06-12T09:00:00Z,28.4460,-96.3961,3.553,1111122 
TCOON,ioos:station:TCOON:057:1,2014-06-12T10:00:00Z,28.4460,-96.3961,3.588,1111122 
TCOON,ioos:station:TCOON:057:1,2014-06-12T11:00:00Z,28.4460,-96.3961,3.599,1111122 
TCOON,ioos:station:TCOON:057:1,2014-06-12T12:00:00Z,28.4460,-96.3961,3.64,1111122 
TCOON,ioos:station:TCOON:057:1,2014-06-12T13:00:00Z,28.4460,-96.3961,3.667,1111122 
TCOON,ioos:station:TCOON:057:1,2014-06-12T14:00:00Z,28.4460,-96.3961,3.694,1111122 
TCOON,ioos:station:TCOON:057:1,2014-06-12T15:00:00Z,28.4460,-96.3961,3.713,1111122 
TCOON,ioos:station:TCOON:057:1,2014-06-12T16:00:00Z,28.4460,-96.3961,3.725,1111122 
TCOON,ioos:station:TCOON:057:1,2014-06-12T17:00:00Z,28.4460,-96.3961,3.725,1111122 
TCOON,ioos:station:TCOON:057:1,2014-06-12T18:00:00Z,28.4460,-96.3961,3.744,1111122 
TCOON,ioos:station:TCOON:057:1,2014-06-12T19:00:00Z,28.4460,-96.3961,3.726,1111122 
TCOON,ioos:station:TCOON:057:1,2014-06-12T20:00:00Z,28.4460,-96.3961,3.718,1111122 